North Platte, NE

7:23 PM CST on February 08, 2016 (GMT -0600)
K0KDC North Platte | | Change Station
CLOSE
Current Station
Personal Weather Station
Location: North Platte, NE
Elevation: 2808 ft
Nearby Weather Stations

Elev 2808 ft 41.14 °N, 100.77 °W | Updated 3 minutes ago

Overcast
Overcast
33.7 °F
Feels Like 30 °F
N
4.0
Wind Variable Wind from WNW
Gusts 9.0 mph

Today
High -- | Low -- °F
--% Chance of Precip.
Yesterday
High -- | Low -- °F
Precip. -- in
Pressure 30.33 in
Visibility 10.0 miles
Clouds Overcast 6500 ft
Windchill 30 °F
Dew Point 21 °F
Humidity 60%
Rainfall 0.00 in
Snow Depth Not available.
7:46 AM 6:08 PM
New Moon, 0% visible
METAR KLBF 090053Z AUTO 30011KT 10SM OVC065 01/M06 A3024 RMK AO2 SLP269 T00061061
Pressure 30.33 in
Visibility 10.0 miles
Clouds Overcast 6500 ft
Windchill 30 °F
Dew Point 21 °F
Humidity 60%
Rainfall 0.00 in
Snow Depth Not available.
7:46 AM 6:08 PM
New Moon, 0% visible
METAR KLBF 090053Z AUTO 30011KT 10SM OVC065 01/M06 A3024 RMK AO2 SLP269 T00061061

10-Day Weather Forecast

Almanac

Astronomy

Feb. 08, 2016 Rise Set
Actual Time
Civil Twilight
Nautical Twilight
Astronomical Twilight
Moon
Length of Visible Light
Length of Day
Tomorrow will be .
, % of the Moon is Illuminated

Today's Extremes

State Highs State Lows

Community

WunderPhotos

Upload Photos

1,891,527 photos uploaded!

WunderBlog® & News

Nearby

Air Quality

  Air Quality AQ Index Pollutant
Not available.

Snow Depth

Station Depth Elevation

Earthquake Activity

City Distance Mag. Time & Date
Minimum magnitude displayed is 2.5.

Coastal Water Temperatures

Place Temperature

Stations

Nearby Weather Stations

Station Location Temp. Windchill Dew Point Humidity Wind Precip. Elev Updated Type
                   

Watches & Warnings

There are currently no watches in effect.